• In Moldova, Republic
  • List of Countries
  • For 7 days
  • Water Temperature
  • Satellite Maps
  • Weather Map
  • Weather Widgets
  • user-avatar
    Login

    Hourly Weather Hobart

    Today, 24 February, Friday

    Time Temperature Precipitation Wind Pressure Humidity
    00:00 +13°C° 0 mm 2 mps 750 mmHg 94%
    01:00 +12°C° 0 mm 2 mps 750 mmHg 94%
    02:00 +12°C° 0 mm 2 mps 751 mmHg 94%
    03:00 +10°C° 0 mm 3 mps 751 mmHg 94%
    04:00 +10°C° 0 mm 3 mps 750 mmHg 94%
    05:00 +10°C° 0 mm 3 mps 751 mmHg 91%
    06:00 +11°C° 0 mm 3 mps 751 mmHg 88%
    07:00 +11°C° 0 mm 3 mps 751 mmHg 84%
    08:00 +13°C° 0 mm 4 mps 751 mmHg 76%
    09:00 +14°C° 0 mm 4 mps 751 mmHg 68%
    10:00 +16°C° 0 mm 5 mps 751 mmHg 60%
    11:00 +16°C° 0 mm 5 mps 752 mmHg 62%
    12:00 +16°C° 0 mm 6 mps 752 mmHg 64%
    13:00 +15°C° 0 mm 6 mps 752 mmHg 66%
    14:00 +15°C° 0.1 mm 6 mps 752 mmHg 67%
    15:00 +15°C° 0.1 mm 6 mps 752 mmHg 68%
    16:00 +14°C° 0.1 mm 6 mps 752 mmHg 69%
    17:00 +13°C° 0 mm 6 mps 753 mmHg 71%
    18:00 +12°C° 0 mm 5 mps 753 mmHg 73%
    19:00 +12°C° 0 mm 5 mps 754 mmHg 74%
    20:00 +9°C° 0 mm 5 mps 754 mmHg 78%
    21:00 +8°C° 0 mm 5 mps 754 mmHg 82%
    22:00 +7°C° 0 mm 4 mps 755 mmHg 85%
    23:00 +6°C° 0 mm 4 mps 755 mmHg 88%

    Tomorrow, 25 February, Saturday

    Time Temperature Precipitation Wind Pressure Humidity
    00:00 +6°C° 0 mm 4 mps 755 mmHg 90%
    01:00 +5°C° 0 mm 4 mps 755 mmHg 93%
    02:00 +5°C° 0 mm 3 mps 755 mmHg 94%
    03:00 +4°C° 0 mm 3 mps 755 mmHg 94%
    04:00 +4°C° 0 mm 3 mps 755 mmHg 95%
    05:00 +5°C° 0 mm 3 mps 755 mmHg 91%
    06:00 +5°C° 0 mm 3 mps 756 mmHg 87%
    07:00 +7°C° 0 mm 3 mps 756 mmHg 83%
    08:00 +10°C° 0 mm 3 mps 756 mmHg 70%
    09:00 +14°C° 0 mm 2 mps 756 mmHg 58%
    10:00 +17°C° 0 mm 2 mps 756 mmHg 46%
    11:00 +18°C° 0 mm 2 mps 756 mmHg 41%
    12:00 +19°C° 0 mm 3 mps 756 mmHg 37%
    13:00 +21°C° 0 mm 3 mps 756 mmHg 33%
    14:00 +20°C° 0 mm 3 mps 756 mmHg 34%
    15:00 +20°C° 0 mm 4 mps 755 mmHg 35%
    16:00 +20°C° 0 mm 4 mps 755 mmHg 36%
    17:00 +17°C° 0 mm 4 mps 755 mmHg 49%
    18:00 +14°C° 0 mm 3 mps 756 mmHg 62%
    19:00 +11°C° 0 mm 3 mps 756 mmHg 75%
    20:00 +10°C° 0 mm 2 mps 756 mmHg 80%
    21:00 +10°C° 0 mm 1 mps 756 mmHg 84%
    22:00 +9°C° 0 mm 1 mps 757 mmHg 89%
    23:00 +9°C° 0 mm 1 mps 756 mmHg 91%

    Day after tomorrow, 26 February, Sunday

    Time Temperature Precipitation Wind Pressure Humidity
    00:00 +9°C° 0 mm 1 mps 756 mmHg 93%
    01:00 +7°C° 0 mm 2 mps 756 mmHg 94%
    02:00 +7°C° 0 mm 2 mps 756 mmHg 95%
    03:00 +7°C° 0 mm 2 mps 755 mmHg 95%
    04:00 +7°C° 0 mm 2 mps 755 mmHg 95%
    05:00 +8°C° 0 mm 2 mps 755 mmHg 91%
    06:00 +9°C° 0 mm 2 mps 756 mmHg 87%
    07:00 +10°C° 0 mm 2 mps 756 mmHg 82%
    08:00 +15°C° 0 mm 2 mps 756 mmHg 70%
    09:00 +19°C° 0 mm 1 mps 756 mmHg 57%
    10:00 +22°C° 0 mm 1 mps 756 mmHg 45%
    11:00 +24°C° 0 mm 1 mps 756 mmHg 41%
    12:00 +26°C° 0 mm 2 mps 756 mmHg 37%
    13:00 +27°C° 0 mm 2 mps 756 mmHg 33%
    14:00 +27°C° 0 mm 2 mps 755 mmHg 34%
    15:00 +26°C° 0 mm 3 mps 755 mmHg 36%
    16:00 +25°C° 0 mm 4 mps 755 mmHg 37%
    17:00 +22°C° 0 mm 4 mps 755 mmHg 49%
    18:00 +19°C° 0 mm 3 mps 755 mmHg 61%
    19:00 +17°C° 0 mm 3 mps 755 mmHg 73%
    20:00 +14°C° 0 mm 3 mps 756 mmHg 79%
    21:00 +14°C° 0 mm 2 mps 756 mmHg 84%
    22:00 +13°C° 0 mm 2 mps 756 mmHg 90%
    23:00 +12°C° 0 mm 2 mps 756 mmHg 90%

    27 February, Monday

    Time Temperature Precipitation Wind Pressure Humidity
    00:00 +12°C° 0 mm 2 mps 756 mmHg 91%
    01:00 +11°C° 0 mm 3 mps 756 mmHg 91%
    02:00 +11°C° 0 mm 3 mps 756 mmHg 92%
    03:00 +10°C° 0 mm 2 mps 756 mmHg 92%
    04:00 +10°C° 0 mm 2 mps 756 mmHg 93%
    05:00 +11°C° 0 mm 3 mps 756 mmHg 89%
    06:00 +12°C° 0 mm 3 mps 756 mmHg 85%
    07:00 +13°C° 0 mm 3 mps 756 mmHg 81%
    08:00 +17°C° 0 mm 3 mps 757 mmHg 69%
    09:00 +20°C° 0 mm 3 mps 757 mmHg 56%
    10:00 +24°C° 0 mm 3 mps 757 mmHg 43%
    11:00 +26°C° 0 mm 3 mps 756 mmHg 38%
    12:00 +28°C° 0 mm 3 mps 756 mmHg 33%
    13:00 +30°C° 0 mm 3 mps 756 mmHg 28%
    14:00 +30°C° 0 mm 4 mps 755 mmHg 29%
    15:00 +29°C° 0 mm 5 mps 755 mmHg 30%
    16:00 +29°C° 0 mm 5 mps 754 mmHg 30%
    17:00 +26°C° 0 mm 5 mps 754 mmHg 43%
    18:00 +22°C° 0 mm 5 mps 755 mmHg 55%
    19:00 +19°C° 0 mm 5 mps 755 mmHg 67%
    20:00 +18°C° 0 mm 4 mps 755 mmHg 72%
    21:00 +15°C° 0 mm 4 mps 755 mmHg 76%
    22:00 +14°C° 0 mm 4 mps 755 mmHg 81%
    23:00 +14°C° 0 mm 4 mps 755 mmHg 84%

    28 February, Tuesday

    Time Temperature Precipitation Wind Pressure Humidity
    00:00 +13°C° 0 mm 4 mps 755 mmHg 86%
    01:00 +13°C° 0 mm 3 mps 755 mmHg 89%
    02:00 +12°C° 0 mm 3 mps 754 mmHg 90%
    03:00 +12°C° 0 mm 3 mps 754 mmHg 91%
    04:00 +12°C° 0 mm 3 mps 754 mmHg 93%
    05:00 +13°C° 0 mm 3 mps 754 mmHg 89%
    06:00 +14°C° 0 mm 3 mps 754 mmHg 85%
    07:00 +14°C° 0 mm 3 mps 754 mmHg 81%
    08:00 +19°C° 0 mm 2 mps 754 mmHg 67%
    09:00 +23°C° 0 mm 2 mps 754 mmHg 54%
    10:00 +27°C° 0 mm 2 mps 754 mmHg 41%
    11:00 +28°C° 0 mm 2 mps 754 mmHg 36%
    12:00 +30°C° 0 mm 2 mps 753 mmHg 31%
    13:00 +31°C° 0 mm 2 mps 753 mmHg 26%
    14:00 +31°C° 0 mm 2 mps 753 mmHg 28%
    15:00 +30°C° 0 mm 3 mps 752 mmHg 30%
    16:00 +29°C° 0 mm 3 mps 752 mmHg 32%
    17:00 +26°C° 0 mm 3 mps 752 mmHg 48%
    18:00 +23°C° 0 mm 2 mps 752 mmHg 63%
    19:00 +19°C° 0 mm 2 mps 753 mmHg 79%
    20:00 +18°C° 0 mm 1 mps 753 mmHg 84%
    21:00 +16°C° 0 mm 1 mps 753 mmHg 89%
    22:00 +14°C° 0 mm 1 mps 753 mmHg 94%
    23:00 +15°C° 0 mm 1 mps 753 mmHg 93%

    1 March, Wednesday

    Time Temperature Precipitation Wind Pressure Humidity
    00:00 +15°C° 0 mm 1 mps 753 mmHg 91%
    01:00 +16°C° 0 mm 1 mps 752 mmHg 90%
    02:00 +16°C° 0 mm 1 mps 752 mmHg 88%
    03:00 +15°C° 0 mm 1 mps 752 mmHg 86%
    04:00 +15°C° 0 mm 1 mps 752 mmHg 84%
    05:00 +16°C° 0 mm 1 mps 752 mmHg 80%
    06:00 +18°C° 0 mm 1 mps 752 mmHg 76%
    07:00 +19°C° 0 mm 1 mps 753 mmHg 73%
    08:00 +21°C° 0 mm 0 mps 753 mmHg 61%
    09:00 +24°C° 0 mm 0 mps 753 mmHg 49%
    10:00 +28°C° 0 mm 0 mps 753 mmHg 37%
    11:00 +31°C° 0 mm 1 mps 752 mmHg 34%
    12:00 +32°C° 0 mm 1 mps 752 mmHg 32%
    13:00 +34°C° 0 mm 2 mps 752 mmHg 30%
    14:00 +32°C° 0 mm 2 mps 751 mmHg 32%
    15:00 +31°C° 0 mm 3 mps 751 mmHg 34%
    16:00 +31°C° 0 mm 3 mps 751 mmHg 36%
    17:00 +28°C° 0 mm 3 mps 751 mmHg 48%
    18:00 +25°C° 0 mm 2 mps 751 mmHg 59%
    19:00 +21°C° 0 mm 2 mps 751 mmHg 71%
    20:00 +20°C° 0 mm 2 mps 751 mmHg 74%
    21:00 +19°C° 0 mm 2 mps 751 mmHg 78%
    22:00 +18°C° 0 mm 2 mps 751 mmHg 82%
    23:00 +18°C° 0 mm 3 mps 751 mmHg 78%
    Show more